Portada
METAR-TAF:

METAR-TAF

Aeropuertos :

Laván, Irán

latitud: 26-48-37N, longitud: 53-21-22E, altitud: 23 m

Observación

El informe se hizo hace 51 minutos, a las 06:00 UTC
Viento 10 kt del oeste-noroeste
Temperatura 22°C
Humedad 78%
Presión 1014 hPa
Visibilidad: 3500 m
calima

METAR: OIBV 210600Z 30010KT 3500 HZ NSC 22/18 Q1014

Hora: 10:21 (06:51 UTC)


TAF: falta

Observaciones y pronósticos meteorológicos de más de 4000 aeropuertos (mensajes METAR y TAF).

Los puntos amarillos y rojos representan las estaciones disponibles.

Ponga el ratón en el punto deseado para ver el nombre de la estación.

Haga clic para ver las observaciones y los pronósticos meteorológicos.

Para cambiar el mapa : haga clic en los botones verdes con una cruz de color negro para hacer un zoom, en el botón verde con un guión para alejar o en las flechas verdes para mapas adyacentes.


METAR-TAF: